Location: Unspecified
(52.4292°N, 19.3359°E)
Time: 11:37:30
(UTC+02:00)

deb Explorer IX - Pass Details

Date: 26 May 2024
Orbit: 510 x 885 km, 38.7° (Epoch: 16 June)

Event Time Altitude Azimuth Distance (km) Brightness Sun altitude
Rises 20:47:55 0° 219° (SW) 3,224 ? -0.8°
Reaches altitude 10° 20:51:49 10° 193° (SSW) 2,204 ? -1.2°
Maximum altitude 20:54:04 13° 167° (SSE) 1,953 ? -1.5°
Drops below altitude 10° 20:56:15 10° 140° (SE) 2,090 ? -1.7°
Enters shadow 20:59:10 - 115° (ESE) 2,747 ? -2.1°
Sets 20:59:44 0° 112° (ESE) 2,908 - -2.2°
